Location: Zagreb
(45.8000°N, 16.0000°E)
Time: 12:25:38
(UTC+01:00)

Vanguard 1 Rocket - Pass Details

Date: 08 October 2020
Orbit: 656 x 4221 km, 34.3° (Epoch: 28 October)

Event Time Altitude Azimuth Distance (km) Brightness Sun altitude
Rises 20:51:37 0° 271° (W) 5,337 12.5 -26.5°
Reaches altitude 10° 20:54:44 10° 264° (W) 4,725 11.8 -27.0°
Maximum altitude 21:08:05 43° 200° (SSW) 4,035 10.5 -29.2°
Enters shadow 21:19:32 27° 153° (SSE) 5,591 10.9 -31.0°
Drops below altitude 10° 21:29:36 10° 139° (SE) 7,344 - -32.6°
Sets 21:36:10 0° 133° (SE) 8,458 - -33.6°
